Mosinee, WI

8:07 PM CDT on May 25, 2018 (GMT -0500)
Central Wisconsin

Weather History for KCWA - March, 2013

Change the Weather History Date:

Thursday, March 7, 2013

  Actual Average Record
Temperature  
Mean Temperature 20 °F -  
Max Temperature 33 °F 29 °F 60 °F (2016)
Min Temperature 8 °F 12 °F -4 °F (2008)
Degree Days  
Heating Degree Days 44    
Moisture  
Dew Point 14 °F    
Average Humidity 76    
Maximum Humidity 100    
Minimum Humidity 48    
Precipitation  
Precipitation 0.00 in - - ()
Sea Level Pressure  
Sea Level Pressure 30.35 in    
Wind  
Wind Speed 6 mph (NE)    
Max Wind Speed 9 mph    
Max Gust Speed -    
Visibility 10 miles    
Events      
Averages and records for this station are not official NWS values.
T = Trace of Precipitation, MM = Missing Value Source: NWS Daily Summary

Daily Weather History Graph

Daily Weather History Graph

Search for Another Location

Airport or City:

Astronomy

Mar. 07, 2013 Rise Set
Actual Time 6:25 AM CST 5:54 PM CST
Civil Twilight 5:56 AM CST 6:23 PM CST
Nautical Twilight 5:22 AM CST 6:57 PM CST
Astronomical Twilight 4:48 AM CST 7:31 PM CST
Moon 3:34 AM CST (3/7) 1:34 PM CST (3/7)
Length of Visible Light 12h 27m
Length of Day
11h 29m
Waning Crescent, 20% of the Moon is Illuminated
Mar 7
Waning Crescent
Mar 11
New
Mar 19
First Quarter
Mar 27
Full
Apr 2
Last Quarter

Hourly Weather History & Observations

Time (CST) Temp. Windchill Dew Point Humidity Pressure Visibility Wind Dir Wind Speed Gust Speed Precip Events Conditions
12:15 AM 19.4 °F 8.6 °F 14.0 °F 80% 30.28 in 10.0 mi North 9.2 mph - N/A   Clear
12:35 AM 19.4 °F 9.5 °F 14.0 °F 80% 30.29 in 10.0 mi North 8.1 mph - N/A   Clear
12:55 AM 19.4 °F 11.5 °F 14.0 °F 80% 30.31 in 10.0 mi North 5.8 mph - N/A   Clear
1:15 AM 17.6 °F 7.3 °F 14.0 °F 86% 30.31 in 10.0 mi North 8.1 mph - N/A   Clear
1:35 AM 17.6 °F 7.3 °F 14.0 °F 86% 30.31 in 10.0 mi North 8.1 mph - N/A   Clear
1:55 AM 17.6 °F 7.3 °F 14.0 °F 86% 30.32 in 10.0 mi North 8.1 mph - N/A   Clear
2:15 AM 17.6 °F 8.2 °F 14.0 °F 86% 30.32 in 10.0 mi North 6.9 mph - N/A   Clear
2:35 AM 17.6 °F 8.2 °F 14.0 °F 86% 30.31 in 10.0 mi North 6.9 mph - N/A   Clear
3:15 AM 17.6 °F 8.2 °F 14.0 °F 86% 30.30 in 10.0 mi North 6.9 mph - N/A   Clear
3:35 AM 15.8 °F 7.2 °F 12.2 °F 86% 30.30 in 10.0 mi North 5.8 mph - N/A   Clear
3:55 AM 15.8 °F 10.2 °F 12.2 °F 86% 30.31 in 10.0 mi North 3.5 mph - N/A   Clear
4:15 AM 14.0 °F 5.1 °F 12.2 °F 93% 30.32 in 10.0 mi North 5.8 mph - N/A   Clear
4:35 AM 14.0 °F 8.2 °F 12.2 °F 93% 30.32 in 10.0 mi North 3.5 mph - N/A   Clear
5:50 AM 8.6 °F 2.0 °F 8.6 °F 100% 30.33 in 10.0 mi North 3.5 mph - N/A   Clear
7:47 AM 14.0 °F 3.9 °F 12.2 °F 93% 30.37 in 10.0 mi North 6.9 mph - N/A   Clear
8:50 AM 17.6 °F 12.3 °F 14.0 °F 86% 30.38 in 10.0 mi North 3.5 mph - N/A   Clear
9:50 AM 23.0 °F 13.9 °F 15.8 °F 74% 30.37 in 10.0 mi NE 8.1 mph - N/A   Clear
10:52 AM 24.8 °F - 14.0 °F 64% 30.38 in 10.0 mi Calm Calm - N/A   Clear
11:45 AM 28.4 °F - 14.0 °F 55% 30.38 in 10.0 mi Calm Calm - N/A   Clear
12:50 PM 28.4 °F - 14.0 °F 55% 30.37 in 10.0 mi Calm Calm - N/A   Clear
1:45 PM 28.4 °F - 15.8 °F 59% 30.34 in 10.0 mi Calm Calm - N/A   Clear
3:45 PM 33.8 °F - 15.8 °F 48% 30.34 in 10.0 mi Calm Calm - N/A   Clear
5:50 PM 28.4 °F - 15.8 °F 59% 30.35 in 10.0 mi Calm Calm - N/A   Clear
6:45 PM 26.6 °F - 14.0 °F 59% 30.37 in 10.0 mi Calm Calm - N/A   Clear
7:45 PM 24.8 °F - 14.0 °F 64% 30.36 in 10.0 mi Calm Calm - N/A   Clear
8:45 PM 23.0 °F 17.0 °F 14.0 °F 68% 30.36 in 10.0 mi ESE 4.6 mph - N/A   Clear
9:15 PM 23.0 °F 15.8 °F 14.0 °F 68% 30.37 in 10.0 mi SSE 5.8 mph - N/A   Clear
9:35 PM 23.0 °F 17.0 °F 14.0 °F 68% 30.37 in 10.0 mi SE 4.6 mph - N/A   Clear
9:45 PM 21.2 °F 14.9 °F 14.0 °F 74% 30.37 in 10.0 mi ESE 4.6 mph - N/A   Clear
9:55 PM 23.0 °F 17.0 °F 14.0 °F 68% 30.37 in 10.0 mi ESE 4.6 mph - N/A   Clear
10:15 PM 21.2 °F 14.9 °F 14.0 °F 74% 30.37 in 10.0 mi ESE 4.6 mph - N/A   Clear
10:35 PM 21.2 °F 13.6 °F 14.0 °F 74% 30.37 in 10.0 mi SE 5.8 mph - N/A   Clear
10:55 PM 21.2 °F 13.6 °F 14.0 °F 74% 30.38 in 10.0 mi ESE 5.8 mph - N/A   Clear
11:15 PM 21.2 °F 14.9 °F 14.0 °F 74% 30.38 in 10.0 mi ESE 4.6 mph - N/A   Clear
11:35 PM 21.2 °F 13.6 °F 14.0 °F 74% 30.38 in 10.0 mi ESE 5.8 mph - N/A   Clear
11:55 PM 19.4 °F 11.5 °F 14.0 °F 80% 30.38 in 10.0 mi East 5.8 mph - N/A   Clear